2023/09/27 00:00:00, 1.6,19.7
2023/09/27 00:10:00, 1.5,19.7
2023/09/27 00:20:00, 1.5,19.8
2023/09/27 00:30:00, 9.2,19.9
2023/09/27 00:40:00,14.6,19.8
2023/09/27 00:50:00,14.6,19.8
2023/09/27 01:00:00,14.5,20.0
2023/09/27 01:10:00,14.3,19.8
2023/09/27 01:20:00,14.1,19.6
2023/09/27 01:30:00,13.7,19.6
2023/09/27 01:40:00,13.4,19.7
2023/09/27 01:50:00,13.1,19.5
2023/09/27 02:00:00,13.0,19.5
2023/09/27 02:10:00,13.0,19.5
2023/09/27 02:20:00,13.0,19.4
2023/09/27 02:30:00,13.1,19.4
2023/09/27 02:40:00,13.4,19.3
2023/09/27 02:50:00,13.7,19.2
2023/09/27 03:00:00,14.1,19.2
2023/09/27 03:10:00,14.8,19.1
2023/09/27 03:20:00, 9.0,19.2
2023/09/27 03:30:00, 1.5,19.5
2023/09/27 03:40:00, 2.2,19.1
2023/09/27 03:50:00, 3.5,19.1
2023/09/27 04:00:00, 5.7,19.1
2023/09/27 04:10:00,14.5,19.1
2023/09/27 04:20:00,14.6,19.3
2023/09/27 04:30:00,14.3,19.1
2023/09/27 04:40:00,14.5,19.1
2023/09/27 04:50:00,10.3,19.0
2023/09/27 05:00:00, 3.6,19.0
2023/09/27 05:10:00,11.2,18.8
2023/09/27 05:20:00,15.2,19.1
2023/09/27 05:30:00,14.6,18.9
2023/09/27 05:40:00,14.1,18.9
2023/09/27 05:50:00,13.7,18.7
2023/09/27 06:00:00,13.4,19.0
2023/09/27 06:10:00,13.1,19.1
2023/09/27 06:20:00,13.0,19.1
2023/09/27 06:30:00,13.1,19.1
2023/09/27 06:40:00,13.0,19.3
2023/09/27 06:50:00,12.6,19.6
2023/09/27 07:00:00,12.4,19.8
2023/09/27 07:10:00,12.3,19.9
2023/09/27 07:20:00,12.8,20.4
2023/09/27 07:30:00,13.1,20.5
2023/09/27 07:40:00,13.6,21.0
2023/09/27 07:50:00,13.6,21.2
2023/09/27 08:00:00,13.4,21.6
2023/09/27 08:10:00,13.6,21.5
2023/09/27 08:20:00,13.9,21.3
2023/09/27 08:30:00,14.4,21.2
2023/09/27 08:40:00,14.7,21.1
2023/09/27 08:50:00,15.0,21.1
2023/09/27 09:00:00,14.5,21.3
2023/09/27 09:10:00,12.3,21.5
2023/09/27 09:20:00, 6.3,22.4
2023/09/27 09:30:00, 3.6,22.7
2023/09/27 09:40:00, 2.8,23.2
2023/09/27 09:50:00, 5.9,23.4
2023/09/27 10:00:00,13.4,23.4
2023/09/27 10:10:00,15.3,23.1
2023/09/27 10:20:00,15.6,22.6
2023/09/27 10:30:00,15.0,22.6
2023/09/27 10:40:00,15.3,22.8
2023/09/27 10:50:00,15.8,23.3
2023/09/27 11:00:00,15.6,22.8
2023/09/27 11:10:00,12.9,23.0
2023/09/27 11:20:00, 2.1,23.7
2023/09/27 11:30:00, 0.2,25.4
2023/09/27 11:40:00, 0.0,27.2
2023/09/27 11:50:00, 0.0,27.2
2023/09/27 12:00:00, 0.0,27.5
2023/09/27 12:10:00, 0.0,27.5
2023/09/27 12:20:00, 0.0,26.1
2023/09/27 12:30:00, 0.0,25.2
2023/09/27 12:40:00, 0.0,25.2
2023/09/27 12:50:00, 0.0,26.0
2023/09/27 13:00:00, 0.0,25.9
2023/09/27 13:10:00, 0.0,25.7
2023/09/27 13:20:00, 0.0,25.4
2023/09/27 13:30:00, 0.1,26.8
2023/09/27 13:40:00, 0.1,26.8
2023/09/27 13:50:00, 0.1,26.5
2023/09/27 14:00:00, 0.1,26.5
2023/09/27 14:10:00, 0.1,26.5
2023/09/27 14:20:00, 0.1,26.5
2023/09/27 14:30:00, 0.0,26.3
2023/09/27 14:40:00, 0.0,26.1
2023/09/27 14:50:00, 0.0,25.4
2023/09/27 15:00:00, 0.0,25.1
2023/09/27 15:10:00, 0.1,24.4
2023/09/27 15:20:00, 0.2,24.6
2023/09/27 15:30:00, 2.7,24.3
2023/09/27 15:40:00, 9.7,24.0
2023/09/27 15:50:00,12.4,24.0
2023/09/27 16:00:00,12.0,23.8
2023/09/27 16:10:00,10.8,23.3
2023/09/27 16:20:00,11.1,23.6
2023/09/27 16:30:00,10.9,23.9
2023/09/27 16:40:00,11.3,23.9
2023/09/27 16:50:00,12.4,23.8
2023/09/27 17:00:00,12.1,23.6
2023/09/27 17:10:00,12.6,23.5
2023/09/27 17:20:00,12.6,23.1
2023/09/27 17:30:00,12.0,23.2
2023/09/27 17:40:00, 9.7,23.0
2023/09/27 17:50:00, 4.2,22.8
2023/09/27 18:00:00, 0.4,22.5
2023/09/27 18:10:00, 0.3,22.6
2023/09/27 18:20:00, 0.5,22.1
2023/09/27 18:30:00, 1.4,22.0
2023/09/27 18:40:00, 8.2,21.9
2023/09/27 18:50:00,11.4,21.7
2023/09/27 19:00:00,11.2,21.7
2023/09/27 19:10:00,10.0,21.5
2023/09/27 19:20:00, 7.3,21.4
2023/09/27 19:30:00, 3.8,21.4
2023/09/27 19:40:00, 2.9,21.2
2023/09/27 19:50:00, 0.7,21.2
2023/09/27 20:00:00, 0.3,20.9
2023/09/27 20:10:00, 0.2,20.8
2023/09/27 20:20:00, 0.2,20.7
2023/09/27 20:30:00, 0.2,20.4
2023/09/27 20:40:00, 0.6,20.4
2023/09/27 20:50:00, 1.8,20.5
2023/09/27 21:00:00, 8.4,20.4
2023/09/27 21:10:00,12.3,20.5
2023/09/27 21:20:00,13.6,20.4
2023/09/27 21:30:00,14.0,20.4
2023/09/27 21:40:00,14.2,20.4
2023/09/27 21:50:00,14.2,20.5
2023/09/27 22:00:00,14.0,20.4
2023/09/27 22:10:00,13.7,20.4
2023/09/27 22:20:00,12.7,20.4
2023/09/27 22:30:00, 9.8,20.4
2023/09/27 22:40:00, 0.4,20.4
2023/09/27 22:50:00, 0.3,20.4
2023/09/27 23:00:00, 0.3,20.7
2023/09/27 23:10:00, 0.4,20.4
2023/09/27 23:20:00, 0.3,20.4
2023/09/27 23:30:00, 0.2,20.4
2023/09/27 23:40:00, 0.2,20.6
2023/09/27 23:50:00, 0.2,20.4
